Tracking 29892 objects as of 21-Nov-2024
HD Live streaming from Space Station
objects crossing your sky now

STARLINK-2426

Track STARLINK-2426 now!
10-day predictions
STARLINK-2426 is classified as:


NORAD ID: 47836
Int'l Code: 2021-018BB
Perigee: 553.2 km
Apogee: 555.3 km
Inclination: 53.1 °
Period: 95.6 minutes
Semi major axis: 6925 km
RCS: Unknown
Launch date: March 11, 2021
Source: United States (US)
Launch site: AIR FORCE EASTERN TEST RANGE (AFETR)
Your satellite tracking list
Your tracking list is empty




NASA's NSSDC Master Catalog

Two Line Element Set (TLE):
1 47836U 21018BB  24326.09816346  .00011655  00000-0  79930-3 0  9993
2 47836  53.0530 217.7384 0001502  84.0763 276.0397 15.06432925204876
Source of the keplerian elements: AFSPC